User: anonymous   Login
Location: Paderno d�Adda
(45.6667°N, 9.4333°E)
Time: 01:34:34
(UTC+00:00)
Language:

Cosmos 858 Rocket - Orbit

View from above orbital plane
View from above orbital plane
View from above satellite
View from above satellite

Ground track
Ground track

The orbit data is extracted from the following two-line orbital elements,

1  9444U 76098B   20334.57025205 +.00000159 +00000-0 +61335-4 0  9996
2  9444 074.0493 136.6495 0013956 323.7859 036.2348 14.37935120749961
Epoch (UTC): 29 November 2020 13:41:09
Eccentricity: 0.0013956
inclination: 74.0493°
perigee height: 755 km
apogee height: 775 km
right ascension of ascending node: 136.6495°
argument of perigee: 323.7859°
revolutions per day: 14.37935120
mean anomaly at epoch: 36.2348°
orbit number at epoch: 74996

The dashed part of the orbit path shows where the satellite is in the earth's shadow,  

DLR